Weather History for KCCY - March, 2014

Change the Weather History Date:

Monday, March 31, 2014

  Actual Average Record
Temperature  
Mean Temperature 46 °F -  
Max Temperature 64 °F 52 °F 81 °F (1986)
Min Temperature 28 °F 31 °F 8 °F (1969)
Degree Days  
Heating Degree Days 19    
Moisture  
Dew Point 39 °F    
Average Humidity 70    
Maximum Humidity 87    
Minimum Humidity 52    
Precipitation  
Precipitation 0.20 in - - ()
Sea Level Pressure  
Sea Level Pressure 29.64 in    
Wind  
Wind Speed 20 mph (SSE)    
Max Wind Speed 33 mph    
Max Gust Speed 44 mph    
Visibility 9 miles    
Events Rain    
Averages and records for this station are not official NWS values.
T = Trace of Precipitation, MM = Missing Value Source: NWS Daily Summary

Daily Weather History Graph

Daily Weather History Graph

Search for Another Location

Airport or City:

Trip Planner

Search our weather history database for the weather conditions in past years. The results will help you decide how hot, cold, wet, or windy it might be!

Date:

Astronomy

Mar. 31, 2014 Rise Set
Actual Time 6:54 AM CDT 7:35 PM CDT
Civil Twilight 6:25 AM CDT 8:04 PM CDT
Nautical Twilight 5:51 AM CDT 8:38 PM CDT
Astronomical Twilight 5:16 AM CDT 9:13 PM CDT
Moon 7:16 AM CDT (3/31) 8:57 PM CDT (3/31)
Length of Visible Light 13h 38m
Length of Day
12h 41m
New Moon, 1% of the Moon is Illuminated
Mar 31
New Moon
Apr 7
First Quarter
Apr 15
Full
Apr 22
Last Quarter
Apr 29
New

Hourly Weather History & Observations

Time (CDT) Temp. Windchill Dew Point Humidity Pressure Visibility Wind Dir Wind Speed Gust Speed Precip Events Conditions
12:15 AM 48.2 °F - 37.4 °F 66% 29.82 in 10.0 mi SE 18.4 mph 24.2 mph N/A   Clear
12:35 AM 48.2 °F - 35.6 °F 62% 29.82 in 10.0 mi SE 18.4 mph 26.5 mph N/A   Clear
12:55 AM 48.2 °F - 35.6 °F 62% 29.82 in 10.0 mi SE 17.3 mph - N/A   Clear
1:15 AM 48.2 °F - 35.6 °F 62% 29.81 in 10.0 mi SE 17.3 mph 23.0 mph N/A   Mostly Cloudy
1:35 AM 48.2 °F - 35.6 °F 62% 29.81 in 10.0 mi SE 17.3 mph - N/A   Mostly Cloudy
1:55 AM 46.4 °F 40.1 °F 35.6 °F 66% 29.81 in 10.0 mi SE 15.0 mph - N/A   Scattered Clouds
2:15 AM 46.4 °F 39.8 °F 35.6 °F 66% 29.80 in 10.0 mi SE 16.1 mph 23.0 mph N/A   Partly Cloudy
2:35 AM 46.4 °F 39.5 °F 35.6 °F 66% 29.80 in 10.0 mi SE 17.3 mph - N/A   Scattered Clouds
2:55 AM 46.4 °F 39.5 °F 35.6 °F 66% 29.79 in 10.0 mi SE 17.3 mph - N/A   Scattered Clouds
3:15 AM 46.4 °F 39.2 °F 35.6 °F 66% 29.78 in 10.0 mi SE 18.4 mph - N/A   Mostly Cloudy
3:35 AM 46.4 °F 39.5 °F 35.6 °F 66% 29.77 in 10.0 mi SSE 17.3 mph - N/A   Mostly Cloudy
3:55 AM 46.4 °F 39.8 °F 35.6 °F 66% 29.76 in 10.0 mi SE 16.1 mph 23.0 mph N/A   Partly Cloudy
4:15 AM 46.4 °F 39.5 °F 35.6 °F 66% 29.75 in 10.0 mi SSE 17.3 mph - N/A   Clear
4:35 AM 46.4 °F 39.8 °F 35.6 °F 66% 29.74 in 10.0 mi SSE 16.1 mph 21.9 mph N/A   Clear
4:55 AM 48.2 °F - 35.6 °F 62% 29.74 in 10.0 mi SSE 18.4 mph - N/A   Mostly Cloudy
5:15 AM 48.2 °F - 35.6 °F 62% 29.72 in 10.0 mi SE 16.1 mph 23.0 mph N/A   Overcast
5:35 AM 48.2 °F - 35.6 °F 62% 29.71 in 10.0 mi SE 17.3 mph - N/A   Mostly Cloudy
5:55 AM 46.4 °F 39.5 °F 35.6 °F 66% 29.69 in 10.0 mi SE 17.3 mph - N/A   Clear
6:15 AM 48.2 °F - 35.6 °F 62% 29.71 in 10.0 mi SSE 17.3 mph 24.2 mph N/A   Mostly Cloudy
6:35 AM 46.4 °F 40.1 °F 37.4 °F 71% 29.75 in 10.0 mi South 15.0 mph - N/A   Overcast
6:55 AM 46.4 °F 40.7 °F 37.4 °F 71% 29.76 in 4.0 mi SSE 12.7 mph - 0.01 in Rain Light Rain
7:15 AM 46.4 °F 41.5 °F 39.2 °F 76% 29.76 in 10.0 mi SE 10.4 mph - N/A   Overcast
7:35 AM 46.4 °F 41.1 °F 39.2 °F 76% 29.76 in 6.0 mi SE 11.5 mph - N/A   Haze
7:55 AM 46.4 °F 40.7 °F 39.2 °F 76% 29.75 in 7.0 mi SE 12.7 mph - 0.03 in   Mostly Cloudy
8:15 AM 46.4 °F 40.4 °F 39.2 °F 76% 29.75 in 8.0 mi SE 13.8 mph - N/A   Overcast
8:35 AM 44.6 °F 38.8 °F 39.2 °F 81% 29.75 in 5.0 mi SE 11.5 mph 19.6 mph N/A   Haze
8:55 AM 44.6 °F 38.1 °F 39.2 °F 81% 29.72 in 3.0 mi SE 13.8 mph 20.7 mph 0.04 in   Haze
9:10 AM 44.6 °F 37.8 °F 39.2 °F 81% 29.73 in 9.0 mi SE 15.0 mph - N/A   Overcast
9:35 AM 44.6 °F 36.4 °F 41.0 °F 87% 29.70 in 4.0 mi SE 20.7 mph 27.6 mph N/A Rain Light Rain
9:55 AM 44.6 °F 35.9 °F 41.0 °F 87% 29.67 in 4.0 mi SE 23.0 mph - 0.04 in Rain Light Rain
10:15 AM 44.6 °F 34.7 °F 41.0 °F 87% 29.63 in 8.0 mi SE 29.9 mph - N/A   Scattered Clouds
10:35 AM 46.4 °F 37.7 °F 41.0 °F 81% 29.62 in 8.0 mi SE 26.5 mph 38.0 mph N/A   Partly Cloudy
10:55 AM 46.4 °F 38.7 °F 42.8 °F 87% 29.64 in - SE 20.7 mph 34.5 mph 0.01 in   Scattered Clouds
11:15 AM 50.0 °F - 44.6 °F 82% 29.65 in 10.0 mi SSE 24.2 mph 31.1 mph N/A   Partly Cloudy
11:35 AM 50.0 °F - 44.6 °F 82% 29.62 in 10.0 mi SSE 26.5 mph 36.8 mph N/A   Partly Cloudy
11:55 AM 51.8 °F - 44.6 °F 76% 29.61 in 10.0 mi SSE 26.5 mph 36.8 mph 0.01 in   Partly Cloudy
12:15 PM 51.8 °F - 44.6 °F 76% 29.60 in 10.0 mi SSE 28.8 mph 40.3 mph N/A   Partly Cloudy
12:35 PM 53.6 °F - 46.4 °F 77% 29.60 in 10.0 mi SSE 25.3 mph 36.8 mph N/A   Scattered Clouds
12:55 PM 53.6 °F - 46.4 °F 77% 29.59 in 10.0 mi SSE 26.5 mph 34.5 mph N/A   Partly Cloudy
1:15 PM 55.4 °F - 46.4 °F 72% 29.57 in 10.0 mi SSE 24.2 mph 31.1 mph N/A   Scattered Clouds
1:35 PM 57.2 °F - 46.4 °F 67% 29.55 in 10.0 mi SSE 26.5 mph 38.0 mph N/A   Partly Cloudy
1:55 PM 57.2 °F - 46.4 °F 67% 29.53 in 10.0 mi SSE 28.8 mph 34.5 mph N/A   Clear
2:15 PM 59.0 °F - 48.2 °F 67% 29.52 in 10.0 mi South 26.5 mph 39.1 mph N/A   Clear
2:35 PM 59.0 °F - 48.2 °F 67% 29.50 in 10.0 mi SSE 31.1 mph 38.0 mph N/A   Clear
2:55 PM 60.8 °F - 48.2 °F 63% 29.50 in 10.0 mi SSE 23.0 mph 36.8 mph N/A   Clear
3:15 PM 60.8 °F - 48.2 °F 63% 29.49 in 10.0 mi SSE 23.0 mph 32.2 mph N/A   Clear
3:35 PM 62.6 °F - 48.2 °F 59% 29.48 in 10.0 mi South 33.4 mph 43.7 mph N/A   Clear
3:55 PM 64.4 °F - 48.2 °F 56% 29.47 in 10.0 mi South 28.8 mph 40.3 mph N/A   Clear
4:15 PM 64.4 °F - 48.2 °F 56% 29.46 in 10.0 mi SSE 27.6 mph 36.8 mph N/A   Clear
4:35 PM 64.4 °F - 46.4 °F 52% 29.45 in 10.0 mi SSE 21.9 mph 32.2 mph N/A   Clear
4:55 PM 64.4 °F - 48.2 °F 56% 29.43 in 10.0 mi SSE 21.9 mph 33.4 mph N/A   Clear
5:15 PM 64.4 °F - 46.4 °F 52% 29.41 in 10.0 mi SSE 21.9 mph 33.4 mph N/A   Clear
5:35 PM 62.6 °F - 46.4 °F 55% 29.41 in 10.0 mi SSE 19.6 mph 28.8 mph N/A   Clear
5:55 PM 62.6 °F - 46.4 °F 55% 29.41 in 10.0 mi SSE 19.6 mph 32.2 mph N/A   Clear
6:15 PM 60.8 °F - 46.4 °F 59% 29.42 in 10.0 mi SSE 17.3 mph 26.5 mph N/A   Mostly Cloudy
6:35 PM 57.2 °F - 48.2 °F 72% 29.47 in 2.0 mi SSW 13.8 mph 24.2 mph N/A   Haze
6:55 PM 57.2 °F - 48.2 °F 72% 29.48 in 10.0 mi SW 26.5 mph - 0.06 in Rain Light Rain
7:15 PM 53.6 °F - 42.8 °F 67% 29.49 in 10.0 mi WSW 21.9 mph 34.5 mph N/A   Overcast
7:35 PM 51.8 °F - 39.2 °F 62% 29.51 in 10.0 mi WSW 20.7 mph 34.5 mph N/A   Overcast
7:55 PM 48.2 °F - 39.2 °F 71% 29.53 in 10.0 mi WSW 25.3 mph 32.2 mph N/A   Overcast
8:15 PM 42.8 °F 32.9 °F 33.8 °F 70% 29.56 in 10.0 mi WSW 26.5 mph 36.8 mph N/A   Overcast
8:35 PM 39.2 °F 28.3 °F 32.0 °F 75% 29.58 in 10.0 mi WSW 25.3 mph 33.4 mph N/A   Scattered Clouds
8:55 PM 39.2 °F 28.7 °F 32.0 °F 75% 29.60 in 10.0 mi WSW 23.0 mph 32.2 mph N/A   Mostly Cloudy
9:15 PM 35.6 °F 23.0 °F 28.4 °F 75% 29.61 in 10.0 mi WSW 27.6 mph 35.7 mph N/A   Overcast
9:35 PM 33.8 °F 21.6 °F 26.6 °F 75% 29.62 in 10.0 mi WSW 23.0 mph 33.4 mph N/A   Overcast
9:55 PM 32.0 °F 18.4 °F 24.8 °F 75% 29.62 in 10.0 mi WSW 26.5 mph 35.7 mph N/A   Overcast
10:15 PM 32.0 °F 18.9 °F 24.8 °F 75% 29.63 in 10.0 mi SW 24.2 mph 33.4 mph N/A   Overcast
10:35 PM 30.2 °F 16.8 °F 24.8 °F 80% 29.62 in 10.0 mi WSW 23.0 mph 33.4 mph N/A   Overcast
10:55 PM 30.2 °F 15.9 °F 23.0 °F 75% 29.63 in 10.0 mi SW 26.5 mph 33.4 mph N/A   Overcast
11:15 PM 30.2 °F 15.9 °F 23.0 °F 75% 29.64 in 10.0 mi SW 26.5 mph - N/A   Overcast
11:35 PM 28.4 °F 12.7 °F 21.2 °F 74% 29.65 in 10.0 mi WSW 29.9 mph - N/A   Overcast
11:55 PM 28.4 °F 14.1 °F 21.2 °F 74% 29.65 in 10.0 mi WSW 24.2 mph 38.0 mph N/A   Overcast